Weather History for Crookston, MN

Change the Weather History Date:

Monday, January 20, 2014

  Actual Average Record
Temperature  
Mean Temperature -8 °F -  
Max Temperature 12 °F 11 °F 30 °F (2015)
Min Temperature -27 °F 0 °F -27 °F (2014)
Degree Days  
Heating Degree Days 72    
Moisture  
Dew Point -13 °F    
Average Humidity 76    
Maximum Humidity 92    
Minimum Humidity 66    
Precipitation  
Precipitation 0.00 in - - ()
Sea Level Pressure  
Sea Level Pressure 30.28 in    
Wind  
Wind Speed 13 mph (NNE)    
Max Wind Speed 29 mph    
Max Gust Speed 34 mph    
Visibility 7 miles    
Events Snow    
Averages and records for this station are not official NWS values.
T = Trace of Precipitation, MM = Missing Value Source: NWS Daily Summary

Daily Weather History Graph

Daily Weather History Graph

Search for Another Location

Airport:

Trip Planner

Search our weather history database for the weather conditions in past years. The results will help you decide how hot, cold, wet, or windy it might be!

Date:

Astronomy

Jan. 20, 2014 Rise Set
Actual Time 8:06 AM CST 5:08 PM CST
Civil Twilight 7:32 AM CST 5:43 PM CST
Nautical Twilight 6:54 AM CST 6:21 PM CST
Astronomical Twilight 6:17 AM CST 6:58 PM CST
Moon 10:08 PM CST (1/20) 9:45 AM CST (1/20)
Length of Visible Light 10h 10m
Length of Day
9h 01m
Waning Gibbous, 82% of the Moon is Illuminated
Jan 20
Waning Gibbous
Jan 23
Last Quarter
Jan 30
New
Feb 6
First Quarter
Feb 14
Full

Hourly Weather History & Observations

Time (CST) Temp. Windchill Dew Point Humidity Pressure Visibility Wind Dir Wind Speed Gust Speed Precip Events Conditions
12:15 AM 12.2 °F -3.7 °F 8.6 °F 85% 29.81 in 10.0 mi North 15.0 mph - N/A   Overcast
12:34 AM 10.4 °F -6.6 °F 8.6 °F 92% 29.83 in 10.0 mi North 16.1 mph - N/A   Overcast
12:54 AM 10.4 °F -5.4 °F 8.6 °F 92% 29.84 in 10.0 mi North 13.8 mph - N/A Snow Light Snow
1:15 AM 10.4 °F -3.3 °F 8.6 °F 92% 29.85 in 10.0 mi NE 10.4 mph - N/A Snow Light Snow
1:34 AM 10.4 °F -3.3 °F 6.8 °F 85% 29.85 in 10.0 mi NE 10.4 mph - N/A Snow Light Snow
1:54 AM 8.6 °F -5.5 °F 5.0 °F 85% 29.87 in 10.0 mi NE 10.4 mph - N/A Snow Light Snow
2:15 AM 8.6 °F -5.5 °F 3.2 °F 79% 29.88 in 10.0 mi NE 10.4 mph - N/A Snow Light Snow
2:34 AM 8.6 °F -5.5 °F 3.2 °F 79% 29.89 in 10.0 mi NE 10.4 mph - N/A Snow Light Snow
2:54 AM 6.8 °F -5.9 °F 1.4 °F 79% 29.90 in 10.0 mi ENE 8.1 mph - N/A Snow Light Snow
3:15 AM 6.8 °F -7.8 °F 1.4 °F 79% 29.92 in 10.0 mi NE 10.4 mph - N/A Snow Light Snow
3:34 AM 6.8 °F -6.9 °F 1.4 °F 79% 29.93 in 7.0 mi NE 9.2 mph - N/A Snow Light Snow
3:54 AM 6.8 °F -5.9 °F 1.4 °F 79% 29.94 in 7.0 mi NE 8.1 mph - N/A Snow Light Snow
4:15 AM 6.8 °F -7.8 °F -0.4 °F 72% 29.95 in 4.0 mi NE 10.4 mph - N/A Snow Light Snow
4:34 AM 5.0 °F -11.6 °F -0.4 °F 78% 29.97 in 5.0 mi NE 12.7 mph - N/A Snow Light Snow
4:55 AM 5.0 °F -10.0 °F -0.4 °F 78% 29.98 in 10.0 mi NE 10.4 mph 16.1 mph N/A Snow Light Snow
5:15 AM 3.2 °F -15.3 °F -2.2 °F 78% 30.00 in 10.0 mi NE 15.0 mph - N/A Snow Light Snow
5:34 AM 3.2 °F -13.9 °F -4.0 °F 72% 30.01 in 7.0 mi NE 12.7 mph - N/A Snow Light Snow
5:55 AM 1.4 °F -16.9 °F -4.0 °F 78% 30.02 in 10.0 mi NE 13.8 mph - N/A Snow Light Snow
6:14 AM 1.4 °F -16.9 °F -4.0 °F 78% 30.03 in 4.0 mi NE 13.8 mph - N/A Snow Light Snow
6:34 AM 1.4 °F -16.1 °F -4.0 °F 78% 30.06 in 7.0 mi NE 12.7 mph - N/A Snow Light Snow
6:55 AM 1.4 °F -14.5 °F -5.8 °F 72% 30.08 in 10.0 mi NE 10.4 mph - N/A Snow Light Snow
7:14 AM -0.4 °F -19.2 °F -5.8 °F 78% 30.09 in 2.5 mi NE 13.8 mph - N/A Snow Light Snow
7:34 AM -0.4 °F -20.5 °F -5.8 °F 78% 30.11 in 2.5 mi NE 16.1 mph 19.6 mph N/A Snow Light Snow
7:55 AM -0.4 °F -21.7 °F -7.6 °F 72% 30.12 in 3.0 mi NE 18.4 mph - N/A Snow Light Snow
8:14 AM -0.4 °F -19.2 °F -7.6 °F 72% 30.14 in 4.0 mi NE 13.8 mph - N/A Snow Light Snow
8:34 AM -0.4 °F -17.6 °F -7.6 °F 72% 30.16 in 3.0 mi NE 11.5 mph - N/A Snow Light Snow
8:55 AM -0.4 °F -18.4 °F -7.6 °F 72% 30.18 in 5.0 mi NNE 12.7 mph - N/A Snow Light Snow
9:14 AM -2.2 °F -22.9 °F -7.6 °F 78% 30.20 in 4.0 mi NE 16.1 mph 19.6 mph N/A   Haze
9:34 AM -2.2 °F -21.5 °F -9.4 °F 71% 30.22 in 7.0 mi NNE 13.8 mph 20.7 mph N/A   Clear
9:55 AM -2.2 °F -20.7 °F -9.4 °F 71% 30.25 in 10.0 mi NNE 12.7 mph - N/A   Clear
10:14 AM -2.2 °F -22.9 °F -9.4 °F 71% 30.27 in 10.0 mi NNE 16.1 mph 20.7 mph N/A   Clear
10:34 AM -2.2 °F -20.7 °F -9.4 °F 71% 30.28 in 10.0 mi NNE 12.7 mph 17.3 mph N/A   Clear
10:54 AM -2.2 °F -21.5 °F -9.4 °F 71% 30.30 in 10.0 mi North 13.8 mph 20.7 mph N/A   Clear
11:15 AM -2.2 °F -21.5 °F -9.4 °F 71% 30.32 in 7.0 mi North 13.8 mph 23.0 mph N/A   Clear
11:34 AM -2.2 °F -23.5 °F -9.4 °F 71% 30.33 in 5.0 mi North 17.3 mph - N/A   Haze
11:55 AM -2.2 °F -23.5 °F -11.2 °F 66% 30.35 in 2.0 mi North 17.3 mph - N/A Snow Light Snow
12:14 PM -4.0 °F -28.6 °F -9.4 °F 78% 30.37 in 1.2 mi North 23.0 mph 26.5 mph N/A Snow Light Snow
12:35 PM -7.6 °F -33.9 °F -13.0 °F 77% 30.37 in 0.5 mi North 24.2 mph 29.9 mph N/A   Haze
12:54 PM -7.6 °F -33.9 °F -14.8 °F 71% 30.39 in 0.5 mi North 24.2 mph 32.2 mph N/A   Haze
1:15 PM -9.4 °F -38.2 °F -16.6 °F 71% 30.40 in 0.5 mi North 28.8 mph 32.2 mph N/A   Haze
1:35 PM -9.4 °F -37.7 °F -16.6 °F 71% 30.41 in 0.5 mi North 27.6 mph 34.5 mph N/A Snow Light Snow
1:54 PM -11.2 °F -39.2 °F -16.6 °F 77% 30.42 in 0.5 mi North 25.3 mph - N/A   Haze
2:15 PM -11.2 °F -40.6 °F -16.6 °F 77% 30.44 in 0.5 mi North 28.8 mph - N/A Snow Light Snow
2:34 PM -11.2 °F -39.7 °F -18.4 °F 70% 30.45 in 0.5 mi North 26.5 mph 32.2 mph N/A Snow Heavy Snow
2:54 PM -11.2 °F -38.2 °F -18.4 °F 70% 30.46 in 1.0 mi North 23.0 mph - N/A Snow Snow
3:14 PM -13.0 °F -40.6 °F -18.4 °F 77% 30.47 in 1.0 mi North 23.0 mph - N/A Snow Heavy Snow
3:34 PM -13.0 °F -39.4 °F -18.4 °F 77% 30.48 in 2.0 mi North 20.7 mph - N/A Snow Light Snow
3:55 PM -13.0 °F -38.8 °F -18.4 °F 77% 30.50 in 2.5 mi North 19.6 mph - N/A Snow Light Snow
4:14 PM -14.8 °F -41.2 °F -20.2 °F 77% 30.50 in 5.0 mi North 19.6 mph - N/A   Haze
4:35 PM -14.8 °F -39.8 °F -20.2 °F 77% 30.51 in 4.0 mi North 17.3 mph - N/A   Haze
4:55 PM -14.8 °F -40.5 °F -20.2 °F 77% 30.51 in 5.0 mi North 18.4 mph - N/A   Haze
5:14 PM -16.6 °F -41.4 °F -20.2 °F 84% 30.53 in 10.0 mi North 16.1 mph - N/A   Clear
5:35 PM -16.6 °F -40.6 °F -22.0 °F 76% 30.55 in 10.0 mi NNW 15.0 mph - N/A   Clear
5:55 PM -16.6 °F -37.9 °F -22.0 °F 76% 30.56 in 10.0 mi NNW 11.5 mph - N/A   Clear
6:14 PM -16.6 °F -38.9 °F -23.8 °F 70% 30.56 in 10.0 mi NNW 12.7 mph - N/A   Clear
6:35 PM -18.4 °F -39.1 °F -25.6 °F 70% 30.57 in 10.0 mi NNW 10.4 mph - N/A   Clear
6:54 PM -20.2 °F -40.1 °F -25.6 °F 76% 30.58 in 10.0 mi NNW 9.2 mph - N/A   Clear
7:15 PM -20.2 °F -37.3 °F -25.6 °F 76% 30.57 in 10.0 mi North 6.9 mph - N/A   Clear
7:34 PM -22.0 °F -39.4 °F -27.4 °F 76% 30.58 in 10.0 mi NNW 6.9 mph - N/A   Clear
7:54 PM -22.0 °F -39.4 °F -27.4 °F 76% 30.57 in 10.0 mi North 6.9 mph - N/A   Clear
8:15 PM -20.2 °F -35.5 °F -25.6 °F 76% 30.56 in 10.0 mi North 5.8 mph - N/A   Clear
8:34 PM -23.8 °F -35.0 °F -27.4 °F 83% 30.57 in 10.0 mi North 3.5 mph - N/A   Clear
8:54 PM -25.6 °F -39.8 °F -32.8 °F 69% 30.58 in 5.0 mi West 4.6 mph - N/A   Haze
9:15 PM -27.4 °F -39.2 °F -34.6 °F 69% 30.57 in 10.0 mi WSW 3.5 mph - N/A   Clear
9:34 PM -25.6 °F - -32.8 °F 69% 30.57 in 10.0 mi Calm Calm - N/A   Clear
9:54 PM -25.6 °F -39.8 °F -31.0 °F 76% 30.57 in 10.0 mi West 4.6 mph - N/A   Clear
10:15 PM -25.6 °F - -32.8 °F 69% 30.56 in 7.0 mi Calm Calm - N/A   Clear
10:34 PM -23.8 °F -37.7 °F -29.2 °F 76% 30.56 in 10.0 mi SSW 4.6 mph - N/A   Clear
10:54 PM -23.8 °F - -29.2 °F 76% 30.55 in 10.0 mi Calm Calm - N/A   Clear
11:15 PM -25.6 °F - -31.0 °F 76% 30.55 in 10.0 mi Calm Calm - N/A   Clear
11:34 PM -25.6 °F -37.1 °F -31.0 °F 76% 30.54 in 10.0 mi South 3.5 mph - N/A   Clear
11:54 PM -27.4 °F -41.9 °F -34.6 °F 69% 30.53 in 10.0 mi SSE 4.6 mph - N/A   Clear